Location: Hains Lake
(37.8540°N, 99.8578°W)
Time: 03:46:15
(UTC+00:00)

Tiros 1 despin weight - Pass Details

Date: 19 April 2021
Orbit: 593 x 642 km, 48.2° (Epoch: 07 May)

Event Time Altitude Azimuth Distance (km) Brightness Sun altitude
Rises 11:33:43 0° 230° (SW) 2,911 - -5.5°
Exits shadow 11:34:47 - 229° (SW) 2,491 ? -5.3°
Reaches altitude 10° 11:36:02 10° 228° (SW) 1,999 ? -5.0°
Maximum altitude 11:40:38 75° 144° (SE) 647 ? -4.2°
Drops below altitude 10° 11:45:10 10° 59° (ENE) 1,977 ? -3.3°
Sets 11:47:28 0° 58° (ENE) 2,876 ? -2.9°
